This is the latest recevied weather packets stored in our database for station/object OE3CJB-13. If no packets are shown the sender has not sent any weather packets the latest 10 day(s).
| Time | Temp. | Humidity | Pressure | Rain* | Wind** | Luminosity | Snow |
|---|---|---|---|---|---|---|---|
| 1788093020 | 29.44° C | 27% | 1188.3 hPa | 0 mm | - | - | - |
| 1788092156 | 28.89° C | 30% | 1187.5 hPa | 0 mm | - | - | - |
| 1788091246 | 28.33° C | 31% | 1186.7 hPa | 0 mm | - | - | - |
| 1788090333 | 27.22° C | 33% | 1187.8 hPa | 0 mm | - | - | - |
| 1788089424 | 27.22° C | 33% | 1188.6 hPa | 0 mm | - | - | - |
| 1788088560 | 26.67° C | 35% | 1188.7 hPa | 0 mm | - | - | - |
| 1788087645 | 27.22° C | 35% | 1189.6 hPa | 0 mm | - | - | - |
| 1788086732 | 27.22° C | 35% | 1189.7 hPa | 0 mm | - | - | - |
| 1788085819 | 26.67° C | 36% | 1190.5 hPa | 0 mm | - | - | - |
| 1788084965 | 26.67° C | 39% | 1190.6 hPa | 0 mm | - | - | - |
| 1788084067 | 26.67° C | 40% | 1192.1 hPa | 0 mm | - | - | - |
| 1788083131 | 25.56° C | 42% | 1195.2 hPa | 0 mm | - | - | - |
| 1788082220 | 25.56° C | 44% | 1197.7 hPa | 0 mm | - | - | - |
| 1788081355 | 25° C | 48% | 1202.3 hPa | 0 mm | - | - | - |
| 1788080445 | 24.44° C | 52% | 1205.2 hPa | 0 mm | - | - | - |
| 1788079531 | 23.33° C | 55% | 1195.5 hPa | 0 mm | - | - | - |
| 1788078619 | 22.78° C | 58% | 1197.9 hPa | 0 mm | - | - | - |
| 1788077756 | 22.22° C | 63% | 1202.4 hPa | 0 mm | - | - | - |
| 1788076846 | 21.67° C | 65% | 1209.8 hPa | 0 mm | - | - | - |
| 1788075932 | 20.56° C | 68% | 1207.5 hPa | 0 mm | - | - | - |
| 1788075070 | 20.56° C | 70% | 1198.6 hPa | 0 mm | - | - | - |
| 1788074155 | 19.44° C | 72% | 1176.4 hPa | 0 mm | - | - | - |
| 1788073247 | 18.89° C | 73% | 1172.5 hPa | 0 mm | - | - | - |
| 1788072332 | 18.89° C | 74% | 1171.6 hPa | 0 mm | - | - | - |
| 1788071419 | 18.33° C | 78% | 1171.6 hPa | 0 mm | - | - | - |
* Rain latest hour (hover to see other rain measurements)
** Current wind speed in m/s (hover to see current wind gust speed)